Content
SEND FEEDBACK

Daily
Averages
Monthly
Summary
United Kingdom

CORBY, ENGLAND


Home > Europe > United Kingdom > England
Elevation: 362 feet     Latitude: 52 04N     Longitude: 000 37W

WEATHER
 
SELECT A DAY
Number of Records: 73,533;   Date Range: 7/1/96 - 9/30/14
 
SHARE

PRINT THIS DATA

[ ← Previous Day ]
WEATHER ALMANAC - FEBRUARY 17, 2014
[ Next Day → ]
[ °C ]   °F
Weather ElementAverageHighLow
Temperature48.2 °F50 °F (11:50 am)44.6 °F (8:20 am)
Dewpoint43.3 °F44.6 °F (9:20 am)41 °F (4:20 pm)
Humidity83.5 %93 % (8:20 am)71 % (4:20 pm)
Barometer29.71 in29.71 in (8:50 am)29.68 in (8:20 am)
Wind Speed15.3 mph20.7 mph (12:20 pm)
Weather ElementAverage
Visibility5.9 mi
Wind DirectionSSE (174 °)

Weather ElementTotal
Precipitation---
Heating Degree Days17.7 (Base 65)
Averaged from 20 records on February 17, 2014
WEATHER CONDITIONS BREAKOUT
WIND DIRECTION BREAKOUT
WEATHER BY HOUR - FEBRUARY 17, 2014
[ °C ]   °F
Local TimeTemperatureDewpointHumidityBarometerVisibilityWind DirectionWind SpeedGust SpeedPrecipitationEventsConditions
8:20 AM44.6 °F42.8 °F93 %29.68 in4.3 miSSE (160°)10.4 mphScattered Clouds
8:50 AM44.6 °F42.8 °F93 %29.71 in5.0 miSouth (170°)10.4 mphScattered Clouds
9:20 AM46.4 °F44.6 °F93 %29.71 in5.0 miSouth (180°)16.1 mphScattered Clouds
9:50 AM46.4 °F44.6 °F93 %29.71 in5.0 miSouth (170°)11.5 mphMostly Cloudy
10:20 AM46.4 °F44.6 °F93 %29.71 in6.2 miSouth (170°)13.8 mphMostly Cloudy
10:50 AM46.4 °F44.6 °F93 %29.71 in6.2 miSouth (180°)13.8 mphMostly Cloudy
11:20 AM48.2 °F44.6 °F87 %29.71 in6.2 miSouth (180°)17.3 mphScattered Clouds
11:50 AM50.0 °F44.6 °F82 %29.71 in6.2 miSouth (170°)17.3 mphScattered Clouds
12:20 PM50.0 °F44.6 °F82 %29.71 in6.2 miSouth (190°)20.7 mphScattered Clouds
12:50 PM50.0 °F44.6 °F82 %29.71 in6.2 miSouth (190°)20.7 mphScattered Clouds
1:20 PM50.0 °F44.6 °F82 %29.71 in6.2 miSouth (180°)16.1 mphScattered Clouds
1:50 PM50.0 °F44.6 °F82 %29.71 in6.2 miSouth (180°)17.3 mphScattered Clouds
2:20 PM50.0 °F42.8 °F76 %29.71 in6.2 miSouth (170°)15.0 mphPartly Cloudy
2:50 PM50.0 °F42.8 °F76 %29.71 in6.2 miSouth (170°)15.0 mphPartly Cloudy
3:20 PM50.0 °F42.8 °F76 %29.71 in6.2 miSouth (180°)17.3 mphPartly Cloudy
3:50 PM50.0 °F42.8 °F76 %29.71 in6.2 miSouth (170°)12.7 mphPartly Cloudy
4:20 PM50.0 °F41.0 °F71 %29.71 in6.2 miSouth (180°)15.0 mphPartly Cloudy
4:50 PM48.2 °F41.0 °F76 %29.71 in6.2 miSouth (170°)16.1 mphPartly Cloudy
5:20 PM44.6 °F41.0 °F87 %29.71 in6.2 miSSE (160°)12.7 mphPartly Cloudy
5:50 PM48.2 °F41.0 °F76 %29.71 in6.2 miSSE (160°)16.1 mphPartly Cloudy
Hourly data recorded from EGTC, located miles away from Corby, England







STORIES FROM OUR PARTNERS